Airfield :
LOGIN :

Register | Disclaimer

   EN    FR    IT 

 










Legend :    VFR   Marginal VFR   IFR   Intensive IFR   Very Intensive IFR
Visi :
Ceiling :
>= 8 km
>= 3000ft
5 to 8 km
1000 to 3000 ft
1500m to 5 km
500 to 1000 ft
800 to 1500m
200 to 500 ft
< 800m
< 200 ft
Symbols :   Thunderstorms  Fog  Heavy snow  Heavy precipitations  Wind > 20 kt
SIGMETs :     Misc.  Thunderstorms  Icing  Turbulence  Mountain Waves  Volcanic Ashes






- Airport Elevation : 235 ft
- IATA code : BZG


EPBY - Bydgoszcz

CURRENT METAR :
  • 270230Z 21007KT 7000 BKN013 10/10 Q1006

EXPIRED METARs :
  • 270200Z 20008KT 8000 NSC 10/10 Q1006
  • 270100Z 21006KT 7000 NSC 10/09 Q1005
  • 270030Z 21008KT 9000 NSC 11/10 Q1005
  • 270000Z 20006KT 8000 NSC 11/10 Q1005

TAF TAF EPBY
Valid from the 27 at 00:00 until the 28 at 00:00 UTC


262330Z 2700/2724 23006KT 8000 NSC
PROB40 2702/2708 SCT008 BKN013
PROB30
TEMPO 2703/2708 5000 BR BKN005 OVC012
BECMG 2708/2710 9999 BKN016
TEMPO 2709/2718 5000 -RA BR BKN007 BKN013



MET'MAP, your aeronautical weather chart ! - Copyright ORBIFLY December 2007 - Disclaimer

ORBIFLY MET'MAP TEAM :

Programming & Development : Alexandra Zaïnal
Concept & original design : Baudouin d'Aumeries
Assistance for programming : Marc-Olivier Méhu
Technical & hardware support : Manuel Goepfert

Contact : metmap@orbifly.com




SOURCES & CREDITS :

   NOAA